User: anonymous   Login
Location: Bakersfield
(35.3730°N, 119.0180°W)
Time: 07:32:55
(UTC-07:00)
Language:

Cosmos 1222 Rocket - Orbit

View from above orbital plane
View from above orbital plane
View from above satellite
View from above satellite

Ground track
Ground track

The orbit data is extracted from the following two-line orbital elements,

1 12072U 80093B   14298.15481112  .00064773  00000-0  66937-3 0  2634
2 12072 081.1806 165.8056 0008520 253.3195 106.7124 15.64462900866369
Epoch (UTC): 25 October 2014 03:42:55
Eccentricity: 0.0008520
inclination: 81.1806°
perigee height: 369 km
apogee height: 380 km
right ascension of ascending node: 165.8056°
argument of perigee: 253.3195°
revolutions per day: 15.64462900
mean anomaly at epoch: 106.7124°
orbit number at epoch: 86636

The dashed part of the orbit path shows where the satellite is in the earth's shadow,  

DLR